Stündliche Wetter Cayenne

Heute, 28 Januar, Donnerstag

Zeit Temperatur Niederschläge Wind Luftdruck Luftfeuchtigkeit
00:00 +25°C° 0.1 mm 4 m/S 757 mmHg 88%
01:00 +25°C° 0.1 mm 4 m/S 757 mmHg 88%
02:00 +25°C° 0.1 mm 4 m/S 756 mmHg 89%
03:00 +25°C° 0.1 mm 4 m/S 756 mmHg 89%
04:00 +25°C° 0.1 mm 4 m/S 756 mmHg 90%
05:00 +25°C° 0.1 mm 4 m/S 756 mmHg 90%
06:00 +25°C° 0.1 mm 4 m/S 756 mmHg 91%
07:00 +26°C° 0 mm 4 m/S 757 mmHg 87%
08:00 +26°C° 0 mm 4 m/S 757 mmHg 84%
09:00 +27°C° 0 mm 4 m/S 757 mmHg 81%
10:00 +28°C° 0 mm 4 m/S 757 mmHg 77%
11:00 +29°C° 0 mm 4 m/S 757 mmHg 74%
12:00 +29°C° 0 mm 4 m/S 757 mmHg 70%
13:00 +29°C° 0.1 mm 4 m/S 757 mmHg 73%
14:00 +28°C° 0.1 mm 4 m/S 756 mmHg 77%
15:00 +28°C° 0.1 mm 4 m/S 756 mmHg 80%
16:00 +27°C° 0 mm 4 m/S 756 mmHg 81%
17:00 +27°C° 0 mm 4 m/S 756 mmHg 82%
18:00 +27°C° 0 mm 3 m/S 756 mmHg 84%
19:00 +26°C° 0 mm 3 m/S 756 mmHg 86%
20:00 +26°C° 0 mm 3 m/S 756 mmHg 88%
21:00 +25°C° 0 mm 4 m/S 756 mmHg 91%
22:00 +25°C° 0.6 mm 3 m/S 757 mmHg 92%
23:00 +25°C° 0.6 mm 3 m/S 757 mmHg 94%

Morgen, 29 Januar, Freitag

Zeit Temperatur Niederschläge Wind Luftdruck Luftfeuchtigkeit
00:00 +25°C° 0.6 mm 3 m/S 757 mmHg 95%
01:00 +25°C° 0.8 mm 3 m/S 756 mmHg 96%
02:00 +25°C° 0.8 mm 3 m/S 756 mmHg 96%
03:00 +25°C° 0.8 mm 3 m/S 756 mmHg 97%
04:00 +25°C° 1.9 mm 3 m/S 756 mmHg 97%
05:00 +25°C° 1.9 mm 3 m/S 756 mmHg 97%
06:00 +25°C° 1.9 mm 3 m/S 756 mmHg 97%
07:00 +25°C° 3.7 mm 3 m/S 756 mmHg 97%
08:00 +25°C° 3.7 mm 3 m/S 757 mmHg 98%
09:00 +25°C° 3.7 mm 2 m/S 757 mmHg 98%
10:00 +26°C° 0.5 mm 2 m/S 757 mmHg 94%
11:00 +27°C° 0.5 mm 2 m/S 758 mmHg 91%
12:00 +28°C° 0.5 mm 2 m/S 758 mmHg 87%
13:00 +29°C° 0.4 mm 2 m/S 757 mmHg 86%
14:00 +29°C° 0.4 mm 3 m/S 756 mmHg 84%
15:00 +29°C° 0.4 mm 4 m/S 755 mmHg 83%
16:00 +29°C° 0.4 mm 4 m/S 755 mmHg 85%
17:00 +28°C° 0.4 mm 4 m/S 755 mmHg 88%
18:00 +27°C° 0.4 mm 4 m/S 755 mmHg 90%
19:00 +27°C° 0.4 mm 4 m/S 755 mmHg 92%
20:00 +26°C° 0.4 mm 4 m/S 756 mmHg 94%
21:00 +26°C° 0.4 mm 4 m/S 756 mmHg 95%
22:00 +25°C° 0.6 mm 4 m/S 757 mmHg 96%
23:00 +25°C° 0.6 mm 4 m/S 757 mmHg 96%

übermorgen, 30 Januar, Samstag

Zeit Temperatur Niederschläge Wind Luftdruck Luftfeuchtigkeit
00:00 +25°C° 0.6 mm 4 m/S 757 mmHg 96%
01:00 +25°C° 0.9 mm 4 m/S 757 mmHg 96%
02:00 +25°C° 0.9 mm 4 m/S 756 mmHg 96%
03:00 +25°C° 0.9 mm 5 m/S 756 mmHg 96%
04:00 +25°C° 1.2 mm 5 m/S 756 mmHg 96%
05:00 +25°C° 1.2 mm 5 m/S 756 mmHg 95%
06:00 +25°C° 1.2 mm 5 m/S 756 mmHg 95%
07:00 +26°C° 1.2 mm 6 m/S 756 mmHg 94%
08:00 +27°C° 1.2 mm 6 m/S 757 mmHg 93%
09:00 +27°C° 1.2 mm 6 m/S 757 mmHg 92%
10:00 +28°C° 0.9 mm 6 m/S 757 mmHg 91%
11:00 +28°C° 0.9 mm 6 m/S 757 mmHg 90%
12:00 +29°C° 0.9 mm 6 m/S 757 mmHg 89%
13:00 +28°C° 1.3 mm 6 m/S 757 mmHg 90%
14:00 +28°C° 1.3 mm 6 m/S 756 mmHg 91%
15:00 +28°C° 1.3 mm 6 m/S 756 mmHg 92%
16:00 +27°C° 0.8 mm 6 m/S 755 mmHg 92%
17:00 +27°C° 0.8 mm 5 m/S 755 mmHg 93%
18:00 +27°C° 0.8 mm 5 m/S 755 mmHg 94%
19:00 +26°C° 0.4 mm 5 m/S 756 mmHg 94%
20:00 +26°C° 0.4 mm 5 m/S 756 mmHg 94%
21:00 +26°C° 0.4 mm 5 m/S 757 mmHg 94%
22:00 +26°C° 0.2 mm 5 m/S 757 mmHg 94%
23:00 +26°C° 0.2 mm 5 m/S 757 mmHg 94%

31 Januar, Sonntag

Zeit Temperatur Niederschläge Wind Luftdruck Luftfeuchtigkeit
00:00 +26°C° 0.2 mm 5 m/S 758 mmHg 94%
01:00 +26°C° 0.2 mm 5 m/S 757 mmHg 94%
02:00 +26°C° 0.2 mm 5 m/S 757 mmHg 94%
03:00 +26°C° 0.2 mm 5 m/S 756 mmHg 94%
04:00 +26°C° 0.2 mm 5 m/S 756 mmHg 94%
05:00 +25°C° 0.2 mm 5 m/S 756 mmHg 94%
06:00 +25°C° 0.2 mm 5 m/S 756 mmHg 94%
07:00 +26°C° 0.1 mm 5 m/S 757 mmHg 93%
08:00 +26°C° 0.1 mm 6 m/S 757 mmHg 92%
09:00 +27°C° 0.1 mm 6 m/S 758 mmHg 91%
10:00 +27°C° 0.2 mm 6 m/S 758 mmHg 87%
11:00 +28°C° 0.2 mm 6 m/S 758 mmHg 84%
12:00 +28°C° 0.2 mm 5 m/S 758 mmHg 80%
13:00 +28°C° 0.2 mm 6 m/S 757 mmHg 78%
14:00 +29°C° 0.2 mm 6 m/S 757 mmHg 76%
15:00 +29°C° 0.2 mm 6 m/S 756 mmHg 74%
16:00 +28°C° 0.1 mm 6 m/S 756 mmHg 78%
17:00 +28°C° 0.1 mm 5 m/S 756 mmHg 81%
18:00 +27°C° 0.1 mm 5 m/S 755 mmHg 84%
19:00 +27°C° 0.1 mm 5 m/S 756 mmHg 86%
20:00 +26°C° 0.1 mm 5 m/S 756 mmHg 87%
21:00 +26°C° 0.1 mm 5 m/S 757 mmHg 89%
22:00 +26°C° 0.2 mm 5 m/S 757 mmHg 89%
23:00 +26°C° 0.2 mm 5 m/S 757 mmHg 90%

1 Februar, Montag

Zeit Temperatur Niederschläge Wind Luftdruck Luftfeuchtigkeit
00:00 +26°C° 0.2 mm 5 m/S 757 mmHg 91%
01:00 +24°C° 0.6 mm 6 m/S 757 mmHg 92%
02:00 +24°C° 0.6 mm 6 m/S 757 mmHg 93%
03:00 +24°C° 0.6 mm 6 m/S 756 mmHg 94%
04:00 +25°C° 0.2 mm 5 m/S 756 mmHg 94%
05:00 +25°C° 0.2 mm 5 m/S 756 mmHg 93%
06:00 +25°C° 0.2 mm 5 m/S 756 mmHg 93%
07:00 +26°C° 0.3 mm 5 m/S 757 mmHg 92%
08:00 +26°C° 0.3 mm 5 m/S 757 mmHg 91%
09:00 +27°C° 0.3 mm 5 m/S 758 mmHg 89%
10:00 +27°C° 0.3 mm 6 m/S 758 mmHg 87%
11:00 +28°C° 0.3 mm 6 m/S 758 mmHg 84%
12:00 +28°C° 0.3 mm 6 m/S 758 mmHg 82%
13:00 +28°C° 0.2 mm 6 m/S 757 mmHg 81%
14:00 +28°C° 0.2 mm 6 m/S 756 mmHg 81%
15:00 +28°C° 0.2 mm 6 m/S 756 mmHg 81%
16:00 +28°C° 0.1 mm 6 m/S 756 mmHg 82%
17:00 +27°C° 0.1 mm 5 m/S 756 mmHg 84%
18:00 +27°C° 0.1 mm 5 m/S 755 mmHg 86%
19:00 +26°C° 0.2 mm 5 m/S 756 mmHg 88%
20:00 +26°C° 0.2 mm 5 m/S 757 mmHg 90%
21:00 +24°C° 0.2 mm 6 m/S 757 mmHg 92%
22:00 +25°C° 0.5 mm 5 m/S 757 mmHg 93%
23:00 +25°C° 0.5 mm 5 m/S 757 mmHg 94%

2 Februar, Dienstag

Zeit Temperatur Niederschläge Wind Luftdruck Luftfeuchtigkeit
00:00 +25°C° 0.5 mm 5 m/S 757 mmHg 95%
01:00 +25°C° 0.9 mm 5 m/S 757 mmHg 95%
02:00 +25°C° 0.9 mm 4 m/S 757 mmHg 95%
03:00 +25°C° 0.9 mm 4 m/S 756 mmHg 95%
04:00 +25°C° 1.1 mm 4 m/S 756 mmHg 96%
05:00 +25°C° 1.1 mm 4 m/S 756 mmHg 96%
06:00 +25°C° 1.1 mm 4 m/S 756 mmHg 96%
07:00 +25°C° 1.2 mm 4 m/S 757 mmHg 95%
08:00 +26°C° 1.2 mm 4 m/S 757 mmHg 94%
09:00 +27°C° 1.2 mm 4 m/S 758 mmHg 93%
10:00 +27°C° 1.2 mm 5 m/S 758 mmHg 92%
11:00 +28°C° 1.2 mm 5 m/S 758 mmHg 90%
12:00 +28°C° 1.2 mm 5 m/S 758 mmHg 89%
13:00 +28°C° 0.8 mm 5 m/S 757 mmHg 89%
14:00 +28°C° 0.8 mm 5 m/S 756 mmHg 89%
15:00 +28°C° 0.8 mm 5 m/S 756 mmHg 88%
16:00 +27°C° 0.7 mm 5 m/S 756 mmHg 90%
17:00 +27°C° 0.7 mm 5 m/S 756 mmHg 92%
18:00 +26°C° 0.7 mm 5 m/S 755 mmHg 94%
19:00 +26°C° 0.8 mm 5 m/S 756 mmHg 94%
20:00 +26°C° 0.8 mm 5 m/S 756 mmHg 94%
21:00 +25°C° 0.8 mm 5 m/S 757 mmHg 95%
22:00 +25°C° 1.3 mm 5 m/S 757 mmHg 95%
23:00 +25°C° 1.3 mm 5 m/S 757 mmHg 95%
Mehr zeigen

Wir brauchen deine Erlaubnis

Meteoprog und unser Service Anbieter werden persönliche Daten aufbewahren, so wie Cookies, Geräte Bezeichnung oder ähnliche Technologien von deinem Gerät und Prozess, so wie Persönliche Daten Inhalte und Werbungen, genauso wie social Media und den Verkehr zu analysieren.

  • Aufbewahrung und/oder Zugang zu deiner Geräte Informationen.

    Cookies, Geräte Bezeichnung oder andere Informationen, können aufbewahrt oder Zugang zu deinem Gerät erhalten, für den Grund, der oben angegeben wird.

  • Personalisierte Werbung und Inhalte, Messungen, Einblick in das Publikum und Produkt Entwicklung.

    Werbungen und Inhalte können personalisiert werden, basierend auf ein Profil. Mehr Daten können besser personalisierte Werbungen und Inhalte hinzufügen. Werbung und Inhalte können gezeigt und gemessen werden. Einblicke über das Publikum, welche die Werbung gesehen haben und den Inhalt, können abgeleitet werden. So wie Daten können genutzt werden, um es zu verbessern oder die Benutzer Erfahrung zu verbessern das System und die Software.

Wenn du “Ich stimme zu” klickst, erlaubst du uns, die Cookies zu benutzen die Geräte Bezeichnung, den Web oder ähnliche Technologien zu benutzen. Deine Settings, können in deinem Gerät bei deinem Browser geändert werden.

Für den bestimmten Zweck, berechtigten Interessen beruhen darauf, mehr als auf den Inhalt. Du kannst mehr darüber in unseren Privaten und Cookie Politik lesen.